******** Week 150 almanac for PRN-1 ******** ID: 1 Health: 0 Eccentricity: 0.01144075394 Time of Applicability(s): 405504 Orbital Inclination(rad): 0.9868673651 Rate of Right Ascen(r/s): -7.817468486e-09 SQRT(A) (m 1/2): 5153.626465 Right Ascen at Week(rad): -2.037771763 Argument of Perigee(rad): 0.8827478952 Mean Anom(rad): -2.519978773 Af0(s): 0.0003346313965 Af1(s/s): -1.091394e-11 week: 150 ******** Week 150 almanac for PRN-2 ******** ID: 2 Health: 0 Eccentricity: 0.02063512802 Time of Applicability(s): 405504 Orbital Inclination(rad): 0.9652058786 Rate of Right Ascen(r/s): -8.011762293e-09 SQRT(A) (m 1/2): 5153.650879 Right Ascen at Week(rad): -2.127239619 Argument of Perigee(rad): -1.438840649 Mean Anom(rad): -2.378805728 Af0(s): -0.0005147595581 Af1(s/s): 0 week: 150 ******** Week 150 almanac for PRN-3 ******** ID: 3 Health: 0 Eccentricity: 0.003888130188 Time of Applicability(s): 405504 Orbital Inclination(rad): 0.9725462164 Rate of Right Ascen(r/s): -7.726036106e-09 SQRT(A) (m 1/2): 5153.628906 Right Ascen at Week(rad): -1.002424987 Argument of Perigee(rad): 0.9542652554 Mean Anom(rad): 2.614011122 Af0(s): -0.0001077754272 Af1(s/s): -1.818989e-11 week: 150 ******** Week 150 almanac for PRN-4 ******** ID: 4 Health: 0 Eccentricity: 0.001719474792 Time of Applicability(s): 405504 Orbital Inclination(rad): 0.9615387058 Rate of Right Ascen(r/s): -7.794610391e-09 SQRT(A) (m 1/2): 5153.592773 Right Ascen at Week(rad): 0.07874572034 Argument of Perigee(rad): -3.049322362 Mean Anom(rad): -0.7475411208 Af0(s): -0.0001484738403 Af1(s/s): 3.637979e-12 week: 150 ******** Week 150 almanac for PRN-5 ******** ID: 5 Health: 0 Eccentricity: 0.005855560303 Time of Applicability(s): 405504 Orbital Inclination(rad): 0.9595313481 Rate of Right Ascen(r/s): -7.863184676e-09 SQRT(A) (m 1/2): 5153.623535 Right Ascen at Week(rad): -1.042957133 Argument of Perigee(rad): 1.008305871 Mean Anom(rad): 0.1360157096 Af0(s): -5.727924805e-05 Af1(s/s): 0 week: 150 ******** Week 150 almanac for PRN-6 ******** ID: 6 Health: 0 Eccentricity: 0.002688884735 Time of Applicability(s): 405504 Orbital Inclination(rad): 0.9862441854 Rate of Right Ascen(r/s): -7.828897533e-09 SQRT(A) (m 1/2): 5153.632324 Right Ascen at Week(rad): -2.046044623 Argument of Perigee(rad): -0.9444213381 Mean Anom(rad): -2.204779802 Af0(s): 0.0001673156982 Af1(s/s): 1.091394e-11 week: 150 ******** Week 150 almanac for PRN-7 ******** ID: 7 Health: 0 Eccentricity: 0.01558303833 Time of Applicability(s): 405504 Orbital Inclination(rad): 0.9508188166 Rate of Right Ascen(r/s): -7.920329913e-09 SQRT(A) (m 1/2): 5153.630371 Right Ascen at Week(rad): 1.097376001 Argument of Perigee(rad): -2.28929293 Mean Anom(rad): 3.092097432 Af0(s): 0.0002472051758 Af1(s/s): 3.637979e-12 week: 150 ******** Week 150 almanac for PRN-8 ******** ID: 8 Health: 0 Eccentricity: 0.007339477539 Time of Applicability(s): 405504 Orbital Inclination(rad): 0.9648942888 Rate of Right Ascen(r/s): -8.057478483e-09 SQRT(A) (m 1/2): 5153.677246 Right Ascen at Week(rad): -3.117455677 Argument of Perigee(rad): 0.113120597 Mean Anom(rad): -0.2670894245 Af0(s): -4.522045898e-05 Af1(s/s): 0 week: 150 ******** Week 150 almanac for PRN-9 ******** ID: 9 Health: 0 Eccentricity: 0.0022315979 Time of Applicability(s): 405504 Orbital Inclination(rad): 0.9545399184 Rate of Right Ascen(r/s): -7.874613723e-09 SQRT(A) (m 1/2): 5153.557617 Right Ascen at Week(rad): 0.02573425046 Argument of Perigee(rad): 1.876254372 Mean Anom(rad): 0.1073992531 Af0(s): -0.0002788594971 Af1(s/s): 3.637979e-12 week: 150 ******** Week 150 almanac for PRN-10 ******** ID: 10 Health: 0 Eccentricity: 0.007536411285 Time of Applicability(s): 405504 Orbital Inclination(rad): 0.9723784372 Rate of Right Ascen(r/s): -7.680319916e-09 SQRT(A) (m 1/2): 5153.634277 Right Ascen at Week(rad): -1.005212817 Argument of Perigee(rad): -2.50865443 Mean Anom(rad): 1.725899911 Af0(s): -0.0002607713135 Af1(s/s): -1.091394e-11 week: 150 ******** Week 150 almanac for PRN-11 ******** ID: 11 Health: 255 Eccentricity: 0.000274181366 Time of Applicability(s): 405504 Orbital Inclination(rad): 0.9619581537 Rate of Right Ascen(r/s): -8.057478483e-09 SQRT(A) (m 1/2): 5153.727539 Right Ascen at Week(rad): -1.994213974 Argument of Perigee(rad): 2.819594508 Mean Anom(rad): -0.3561423273 Af0(s): -6.255496826e-05 Af1(s/s): 1.091394e-11 week: 150 ******** Week 150 almanac for PRN-12 ******** ID: 12 Health: 0 Eccentricity: 0.008703231811 Time of Applicability(s): 405504 Orbital Inclination(rad): 0.9700415134 Rate of Right Ascen(r/s): -7.748894201e-09 SQRT(A) (m 1/2): 5153.55127 Right Ascen at Week(rad): 2.210480548 Argument of Perigee(rad): 1.248964087 Mean Anom(rad): 2.445533517 Af0(s): -0.0001386760742 Af1(s/s): -7.275958e-12 week: 150 ******** Week 150 almanac for PRN-13 ******** ID: 13 Health: 0 Eccentricity: 0.005809783936 Time of Applicability(s): 405504 Orbital Inclination(rad): 0.9689749173 Rate of Right Ascen(r/s): -7.737465153e-09 SQRT(A) (m 1/2): 5153.618164 Right Ascen at Week(rad): 0.1786675661 Argument of Perigee(rad): 0.9548378766 Mean Anom(rad): -0.8209654707 Af0(s): 0.0002110288086 Af1(s/s): 7.275958e-12 week: 150 ******** Week 150 almanac for PRN-14 ******** ID: 14 Health: 0 Eccentricity: 0.001462459564 Time of Applicability(s): 405504 Orbital Inclination(rad): 0.9534313776 Rate of Right Ascen(r/s): -7.908900866e-09 SQRT(A) (m 1/2): 5153.600586 Right Ascen at Week(rad): 2.179031694 Argument of Perigee(rad): 3.023659643 Mean Anom(rad): 2.504230004 Af0(s): -6.933803711e-05 Af1(s/s): -3.637979e-12 week: 150 ******** Week 150 almanac for PRN-15 ******** ID: 15 Health: 0 Eccentricity: 0.01393699646 Time of Applicability(s): 405504 Orbital Inclination(rad): 0.930379721 Rate of Right Ascen(r/s): -8.126052768e-09 SQRT(A) (m 1/2): 5153.680176 Right Ascen at Week(rad): -0.08051152098 Argument of Perigee(rad): 1.077250742 Mean Anom(rad): -1.256649346 Af0(s): -6.406231689e-05 Af1(s/s): 3.637979e-12 week: 150 ******** Week 150 almanac for PRN-16 ******** ID: 16 Health: 0 Eccentricity: 0.01278209686 Time of Applicability(s): 405504 Orbital Inclination(rad): 0.9699875843 Rate of Right Ascen(r/s): -7.748894201e-09 SQRT(A) (m 1/2): 5153.563965 Right Ascen at Week(rad): 2.22909467 Argument of Perigee(rad): 0.7102634402 Mean Anom(rad): 0.5907260398 Af0(s): -0.0003738224609 Af1(s/s): -3.637979e-12 week: 150 ******** Week 150 almanac for PRN-17 ******** ID: 17 Health: 0 Eccentricity: 0.01357603073 Time of Applicability(s): 405504 Orbital Inclination(rad): 0.9800303648 Rate of Right Ascen(r/s): -7.897471818e-09 SQRT(A) (m 1/2): 5153.719727 Right Ascen at Week(rad): -3.035463355 Argument of Perigee(rad): -1.495971321 Mean Anom(rad): -0.354846533 Af0(s): 0.0004582339844 Af1(s/s): 3.637979e-12 week: 150 ******** Week 150 almanac for PRN-18 ******** ID: 18 Health: 0 Eccentricity: 0.002109050751 Time of Applicability(s): 405504 Orbital Inclination(rad): 0.9706527088 Rate of Right Ascen(r/s): -7.988904198e-09 SQRT(A) (m 1/2): 5153.572266 Right Ascen at Week(rad): -2.030092871 Argument of Perigee(rad): 3.097363 Mean Anom(rad): -2.304985149 Af0(s): 0.0001846502075 Af1(s/s): -7.275958e-12 week: 150 ******** Week 150 almanac for PRN-19 ******** ID: 19 Health: 0 Eccentricity: 0.008995532989 Time of Applicability(s): 405504 Orbital Inclination(rad): 0.9787959897 Rate of Right Ascen(r/s): -7.920329913e-09 SQRT(A) (m 1/2): 5153.64209 Right Ascen at Week(rad): -2.990612019 Argument of Perigee(rad): 2.010533492 Mean Anom(rad): 2.0621297 Af0(s): 9.722398682e-05 Af1(s/s): 3.637979e-12 week: 150 ******** Week 150 almanac for PRN-20 ******** ID: 20 Health: 0 Eccentricity: 0.005132675171 Time of Applicability(s): 405504 Orbital Inclination(rad): 0.9417048136 Rate of Right Ascen(r/s): -8.034620388e-09 SQRT(A) (m 1/2): 5153.703125 Right Ascen at Week(rad): -1.157187769 Argument of Perigee(rad): -3.141271702 Mean Anom(rad): -1.516620515 Af0(s): 0.0004084914795 Af1(s/s): 0 week: 150 ******** Week 150 almanac for PRN-21 ******** ID: 21 Health: 0 Eccentricity: 0.02457904816 Time of Applicability(s): 405504 Orbital Inclination(rad): 0.9594654349 Rate of Right Ascen(r/s): -8.046049436e-09 SQRT(A) (m 1/2): 5153.529785 Right Ascen at Week(rad): -2.128931642 Argument of Perigee(rad): -0.9984488456 Mean Anom(rad): -0.1592778392 Af0(s): 0.0001251099365 Af1(s/s): 0 week: 150 ******** Week 150 almanac for PRN-22 ******** ID: 22 Health: 0 Eccentricity: 0.01295423508 Time of Applicability(s): 405504 Orbital Inclination(rad): 0.9616825165 Rate of Right Ascen(r/s): -7.817468486e-09 SQRT(A) (m 1/2): 5153.602051 Right Ascen at Week(rad): 0.1270466408 Argument of Perigee(rad): -1.871298146 Mean Anom(rad): -0.4697471618 Af0(s): 0.0001725914185 Af1(s/s): 7.275958e-12 week: 150 ******** Week 150 almanac for PRN-23 ******** ID: 23 Health: 0 Eccentricity: 0.00199508667 Time of Applicability(s): 405504 Orbital Inclination(rad): 0.9674169681 Rate of Right Ascen(r/s): -7.748894201e-09 SQRT(A) (m 1/2): 5153.65625 Right Ascen at Week(rad): -1.03012053 Argument of Perigee(rad): 2.98049209 Mean Anom(rad): 3.030418371 Af0(s): -1.507348633e-06 Af1(s/s): -3.637979e-12 week: 150 ******** Week 150 almanac for PRN-24 ******** ID: 24 Health: 0 Eccentricity: 0.0123591423 Time of Applicability(s): 405504 Orbital Inclination(rad): 0.9343704679 Rate of Right Ascen(r/s): -8.080336578e-09 SQRT(A) (m 1/2): 5153.631836 Right Ascen at Week(rad): 1.014457149 Argument of Perigee(rad): 0.8088100961 Mean Anom(rad): -2.224473628 Af0(s): 0.0002155508545 Af1(s/s): -3.637979e-12 week: 150 ******** Week 150 almanac for PRN-25 ******** ID: 25 Health: 0 Eccentricity: 0.01052951813 Time of Applicability(s): 405504 Orbital Inclination(rad): 0.9574401009 Rate of Right Ascen(r/s): -7.874613723e-09 SQRT(A) (m 1/2): 5153.658691 Right Ascen at Week(rad): 2.133625713 Argument of Perigee(rad): 0.9828128026 Mean Anom(rad): 2.184166186 Af0(s): 0.0002291169922 Af1(s/s): 3.637979e-12 week: 150 ******** Week 150 almanac for PRN-26 ******** ID: 26 Health: 0 Eccentricity: 0.006905078888 Time of Applicability(s): 405504 Orbital Inclination(rad): 0.9382713331 Rate of Right Ascen(r/s): -8.034620388e-09 SQRT(A) (m 1/2): 5153.652832 Right Ascen at Week(rad): 2.086443071 Argument of Perigee(rad): 0.3727120163 Mean Anom(rad): 1.530912827 Af0(s): 0.0001469664917 Af1(s/s): 3.637979e-12 week: 150 ******** Week 150 almanac for PRN-27 ******** ID: 27 Health: 0 Eccentricity: 0.01029682159 Time of Applicability(s): 405504 Orbital Inclination(rad): 0.9736068203 Rate of Right Ascen(r/s): -7.977475151e-09 SQRT(A) (m 1/2): 5153.605469 Right Ascen at Week(rad): -3.097963335 Argument of Perigee(rad): 0.6424623132 Mean Anom(rad): -0.3004048208 Af0(s): 0.00010476073 Af1(s/s): 1.455192e-11 week: 150 ******** Week 150 almanac for PRN-29 ******** ID: 29 Health: 0 Eccentricity: 0.00186252594 Time of Applicability(s): 405504 Orbital Inclination(rad): 0.9820497067 Rate of Right Ascen(r/s): -7.897471818e-09 SQRT(A) (m 1/2): 5153.703613 Right Ascen at Week(rad): -3.022436877 Argument of Perigee(rad): 2.242559322 Mean Anom(rad): -0.1642295711 Af0(s): -0.0003828665527 Af1(s/s): -3.637979e-12 week: 150 ******** Week 150 almanac for PRN-30 ******** ID: 30 Health: 0 Eccentricity: 0.005540370941 Time of Applicability(s): 405504 Orbital Inclination(rad): 0.9359823462 Rate of Right Ascen(r/s): -8.091765626e-09 SQRT(A) (m 1/2): 5153.512695 Right Ascen at Week(rad): 1.110369148 Argument of Perigee(rad): -2.740272796 Mean Anom(rad): 3.134845162 Af0(s): -0.0004069841309 Af1(s/s): -3.637979e-12 week: 150 ******** Week 150 almanac for PRN-31 ******** ID: 31 Health: 0 Eccentricity: 0.01045703888 Time of Applicability(s): 405504 Orbital Inclination(rad): 0.9550372638 Rate of Right Ascen(r/s): -7.874613723e-09 SQRT(A) (m 1/2): 5153.635742 Right Ascen at Week(rad): 1.115509631 Argument of Perigee(rad): 0.3779775851 Mean Anom(rad): 2.638836818 Af0(s): -0.0001311393311 Af1(s/s): 0 week: 150 ******** Week 150 almanac for PRN-32 ******** ID: 32 Health: 0 Eccentricity: 0.005621910095 Time of Applicability(s): 405504 Orbital Inclination(rad): 0.9583928468 Rate of Right Ascen(r/s): -7.840326581e-09 SQRT(A) (m 1/2): 5153.720215 Right Ascen at Week(rad): 0.0369743299 Argument of Perigee(rad): -2.348240711 Mean Anom(rad): 0.3346991784 Af0(s): -5.803292236e-05 Af1(s/s): -7.275958e-12 week: 150